| time (UTC) | temp C | wind direction | speed KPH | gust KPH | rain 1hr cm | rain 24hr cm | rain mn cm | humidity % | barometer mb |
| 20260504174941 | 21 | 239 | 6.4 | 9.7 | 0.00 | 0.00 | 0.00 | 38 | 1010.7 |
| 20260504173931 | 21 | 220 | 8.0 | 12.9 | 0.00 | 0.00 | 0.00 | 39 | 1010.8 |
| 20260504172945 | 21 | 265 | 8.0 | 14.5 | 0.00 | 0.00 | 0.00 | 37 | 1010.9 |
| 20260504170945 | 20 | 159 | 6.4 | 16.1 | 0.00 | 0.00 | 0.00 | 41 | 1011.3 |
| 20260504150929 | 18 | 275 | 6.4 | 11.3 | 0.00 | 0.00 | 0.00 | 42 | 1012.7 |
| 20260504140935 | 16 | 204 | 6.4 | 12.9 | 0.00 | 0.00 | 0.00 | 50 | 1013.0 |
| 20260504081938 | 1 | 223 | 0.0 | 0.0 | 0.00 | 0.00 | 0.00 | 93 | 1013.6 |
| 20260504045934 | 2 | 223 | 0.0 | 0.0 | 0.00 | 0.00 | 0.00 | 91 | 1013.2 |
| 20260504044944 | 2 | 223 | 0.0 | 0.0 | 0.00 | 0.00 | 0.00 | 91 | 1013.3 |
| 20260504043933 | 2 | 223 | 0.0 | 0.0 | 0.00 | 0.00 | 0.00 | 91 | 1013.3 |
| 20260504042942 | 2 | 223 | 0.0 | 0.0 | 0.00 | 0.00 | 0.00 | 90 | 1013.3 |
| 20260504041932 | 2 | 223 | 0.0 | 0.0 | 0.00 | 0.00 | 0.00 | 90 | 1013.2 |
| 20260504040941 | 2 | 223 | 0.0 | 0.0 | 0.00 | 0.00 | 0.00 | 89 | 1013.1 |
| 20260504035930 | 2 | 223 | 0.0 | 0.0 | 0.00 | 0.00 | 0.00 | 89 | 1013.0 |
| 20260504034940 | 2 | 223 | 0.0 | 0.0 | 0.00 | 0.00 | 0.00 | 89 | 1012.9 |
| 20260504033929 | 2 | 223 | 0.0 | 0.0 | 0.00 | 0.00 | 0.00 | 89 | 1012.8 |
| 20260504032942 | 3 | 223 | 0.0 | 0.0 | 0.00 | 0.00 | 0.00 | 88 | 1012.8 |
| 20260504031931 | 3 | 223 | 0.0 | 0.0 | 0.00 | 0.00 | 0.00 | 88 | 1012.9 |
| 20260504030940 | 3 | 223 | 0.0 | 0.0 | 0.00 | 0.00 | 0.00 | 87 | 1012.7 |
| 20260504025929 | 3 | 223 | 0.0 | 0.0 | 0.00 | 0.00 | 0.00 | 87 | 1012.7 |
| 20260504024938 | 3 | 223 | 0.0 | 0.0 | 0.00 | 0.00 | 0.00 | 86 | 1012.7 |
| 20260504023927 | 4 | 223 | 0.0 | 0.0 | 0.00 | 0.00 | 0.00 | 86 | 1012.7 |
| 20260504022936 | 4 | 223 | 0.0 | 0.0 | 0.00 | 0.00 | 0.00 | 84 | 1012.7 |
| 20260504021926 | 4 | 223 | 0.0 | 0.0 | 0.00 | 0.00 | 0.00 | 83 | 1012.6 |
| 20260504015933 | 5 | 223 | 0.0 | 0.0 | 0.00 | 0.00 | 0.00 | 81 | 1012.8 |
| 20260504014943 | 5 | 223 | 0.0 | 0.0 | 0.00 | 0.00 | 0.00 | 80 | 1012.7 |
| 20260504013934 | 6 | 223 | 0.0 | 0.0 | 0.00 | 0.00 | 0.00 | 79 | 1012.6 |
| 20260504011934 | 6 | 223 | 0.0 | 0.0 | 0.00 | 0.00 | 0.00 | 78 | 1012.3 |
| 20260504010943 | 7 | 223 | 0.0 | 0.0 | 0.00 | 0.00 | 0.00 | 74 | 1012.2 |
| 20260504005933 | 7 | 223 | 0.0 | 0.0 | 0.00 | 0.00 | 0.00 | 71 | 1012.0 |
| 20260504004942 | 8 | 223 | 0.0 | 0.0 | 0.00 | 0.00 | 0.00 | 67 | 1011.9 |
| 20260504003931 | 8 | 223 | 0.0 | 0.0 | 0.00 | 0.00 | 0.00 | 64 | 1011.8 |
| 20260504002940 | 10 | 223 | 0.0 | 0.0 | 0.00 | 0.00 | 0.00 | 60 | 1011.7 |
| 20260504001933 | 11 | 223 | 0.0 | 0.0 | 0.00 | 0.00 | 0.00 | 55 | 1011.5 |
| 20260504000942 | 12 | 223 | 0.0 | 0.0 | 0.00 | 0.00 | 0.00 | 47 | 1011.4 |
| 20260503235930 | 12 | 223 | 0.0 | 3.2 | 0.00 | 0.00 | 0.00 | 46 | 1011.4 |
| 20260503234939 | 13 | 223 | 0.0 | 3.2 | 0.00 | 0.00 | 0.00 | 41 | 1011.2 |
| 20260503233928 | 13 | 256 | 1.6 | 9.7 | 0.00 | 0.00 | 0.00 | 39 | 1011.1 |
| 20260503232937 | 14 | 215 | 1.6 | 8.0 | 0.00 | 0.00 | 0.00 | 37 | 1011.0 |
| 20260503231926 | 14 | 326 | 1.6 | 9.7 | 0.00 | 0.00 | 0.00 | 35 | 1011.0 |
| 20260503230936 | 14 | 227 | 3.2 | 12.9 | 0.00 | 0.00 | 0.00 | 33 | 1011.0 |
| 20260503225929 | 15 | 298 | 6.4 | 12.9 | 0.00 | 0.00 | 0.00 | 33 | 1010.9 |
| 20260503224938 | 15 | 214 | 1.6 | 14.5 | 0.00 | 0.00 | 0.00 | 33 | 1010.9 |
| 20260503223927 | 15 | 287 | 3.2 | 11.3 | 0.00 | 0.00 | 0.00 | 32 | 1010.8 |
| 20260503222936 | 15 | 311 | 8.0 | 12.9 | 0.00 | 0.00 | 0.00 | 33 | 1010.8 |
| 20260503220938 | 15 | 298 | 3.2 | 9.7 | 0.00 | 0.00 | 0.00 | 34 | 1010.7 |
| 20260503215927 | 15 | 212 | 0.0 | 8.0 | 0.00 | 0.00 | 0.00 | 34 | 1010.6 |
| 20260503214937 | 15 | 186 | 3.2 | 11.3 | 0.00 | 0.00 | 0.00 | 33 | 1010.6 |
| 20260503213945 | 15 | 256 | 1.6 | 11.3 | 0.00 | 0.00 | 0.00 | 32 | 1010.5 |
| 20260503212933 | 15 | 331 | 4.8 | 14.5 | 0.00 | 0.00 | 0.00 | 31 | 1010.6 |
| 20260503210938 | 16 | 306 | 3.2 | 11.3 | 0.00 | 0.00 | 0.00 | 32 | 1010.7 |
| 20260503205927 | 16 | 286 | 4.8 | 11.3 | 0.00 | 0.00 | 0.00 | 32 | 1010.6 |
| 20260503204936 | 15 | 330 | 3.2 | 11.3 | 0.00 | 0.00 | 0.00 | 34 | 1010.6 |
| 20260503203946 | 15 | 227 | 8.0 | 14.5 | 0.00 | 0.00 | 0.00 | 34 | 1010.8 |
| 20260503202934 | 15 | 337 | 8.0 | 19.3 | 0.00 | 0.00 | 0.00 | 34 | 1010.8 |
| 20260503201944 | 15 | 353 | 6.4 | 14.5 | 0.00 | 0.00 | 0.00 | 34 | 1011.0 |
| 20260503200934 | 15 | 281 | 3.2 | 16.1 | 0.00 | 0.00 | 0.00 | 34 | 1011.1 |
| 20260503195944 | 15 | 2 | 4.8 | 17.7 | 0.00 | 0.00 | 0.00 | 32 | 1011.1 |
| 20260503194932 | 14 | 6 | 4.8 | 20.9 | 0.00 | 0.00 | 0.00 | 35 | 1011.1 |
| 20260503193926 | 14 | 314 | 4.8 | 9.7 | 0.00 | 0.00 | 0.00 | 36 | 1011.1 |
| 20260503191928 | 14 | 279 | 6.4 | 19.3 | 0.00 | 0.00 | 0.00 | 36 | 1011.5 |
| 20260503190937 | 13 | 298 | 6.4 | 14.5 | 0.00 | 0.00 | 0.00 | 38 | 1011.4 |
| 20260503185926 | 13 | 360 | 8.0 | 20.9 | 0.00 | 0.00 | 0.00 | 34 | 1011.3 |
| 20260503184935 | 13 | 335 | 4.8 | 22.5 | 0.00 | 0.00 | 0.00 | 38 | 1011.5 |
| 20260503183944 | 13 | 313 | 4.8 | 16.1 | 0.00 | 0.00 | 0.00 | 36 | 1011.4 |
| 20260503182934 | 13 | 283 | 3.2 | 14.5 | 0.00 | 0.00 | 0.00 | 37 | 1011.9 |
| 20260503175935 | 13 | 299 | 4.8 | 11.3 | 0.00 | 0.00 | 0.00 | 38 | 1011.6 |